Weather History for Greenwood, SC

Change the Weather History Date:

Sunday, January 6, 2013

  Actual Average (KAND) Record (KAND)
Temperature  
Mean Temperature 47 °F -  
Max Temperature 53 °F 50 °F 73 °F (1950)
Min Temperature 37 °F 34 °F 12 °F (2014)
Degree Days  
Heating Degree Days 18    
Moisture  
Dew Point 36 °F    
Average Humidity 67    
Maximum Humidity 83    
Minimum Humidity 56    
Precipitation  
Precipitation 0.00 in - - ()
Sea Level Pressure  
Sea Level Pressure 30.18 in    
Wind  
Wind Speed 6 mph (WSW)    
Max Wind Speed 12 mph    
Max Gust Speed -    
Visibility 10 miles    
Events Rain    
Averages and records for this station are not official NWS values.
T = Trace of Precipitation, MM = Missing Value Source: NWS Daily Summary

Daily Weather History Graph

Daily Weather History Graph

Search for Another Location

Airport:

Trip Planner

Search our weather history database for the weather conditions in past years. The results will help you decide how hot, cold, wet, or windy it might be!

Date:

Astronomy

Jan. 06, 2013 Rise Set
Actual Time 7:35 AM EST 5:34 PM EST
Civil Twilight 7:07 AM EST 6:01 PM EST
Nautical Twilight 6:36 AM EST 6:32 PM EST
Astronomical Twilight 6:06 AM EST 7:03 PM EST
Moon 1:54 AM EST (1/6) 12:55 PM EST (1/6)
Length of Visible Light 10h 53m
Length of Day
9h 58m
Waning Crescent, 33% of the Moon is Illuminated
Jan 6
Waning Crescent
Jan 11
New
Jan 18
First Quarter
Jan 26
Full
Feb 3
Last Quarter

Hourly Weather History & Observations

Time (EST) Temp. Windchill Dew Point Humidity Pressure Visibility Wind Dir Wind Speed Gust Speed Precip Events Conditions
12:56 AM 44.1 °F 42.5 °F 34.0 °F 68% 30.27 in 10.0 mi SW 3.5 mph - 0.00 in   Overcast
1:56 AM 46.0 °F 43.1 °F 30.9 °F 56% 30.26 in 10.0 mi West 5.8 mph - N/A   Overcast
2:56 AM 44.1 °F 40.8 °F 34.0 °F 68% 30.25 in 10.0 mi SW 5.8 mph - 0.00 in   Overcast
3:56 AM 44.1 °F 41.5 °F 35.1 °F 71% 30.22 in 10.0 mi West 4.6 mph - N/A   Overcast
5:56 AM 44.1 °F 40.1 °F 33.1 °F 65% 30.19 in 10.0 mi SW 6.9 mph - N/A   Overcast
6:56 AM 44.1 °F 40.1 °F 34.0 °F 68% 30.20 in 10.0 mi SW 6.9 mph - 0.00 in   Overcast
7:56 AM 44.1 °F 40.1 °F 34.0 °F 68% 30.21 in 10.0 mi SSW 6.9 mph - 0.00 in   Overcast
8:56 AM 45.0 °F 40.1 °F 35.1 °F 68% 30.22 in 10.0 mi SW 9.2 mph - 0.00 in Rain Light Rain
9:56 AM 46.0 °F 41.4 °F 36.0 °F 68% 30.22 in 10.0 mi SW 9.2 mph - 0.00 in   Overcast
10:56 AM 48.0 °F - 37.9 °F 68% 30.21 in 10.0 mi WSW 9.2 mph - N/A   Overcast
11:56 AM 50.0 °F - 39.0 °F 66% 30.18 in 10.0 mi WSW 9.2 mph - N/A   Overcast
12:56 PM 51.1 °F - 39.9 °F 66% 30.14 in 10.0 mi WSW 10.4 mph - N/A   Overcast
1:56 PM 52.0 °F - 39.9 °F 63% 30.12 in 10.0 mi SW 9.2 mph - N/A   Overcast
2:56 PM 53.1 °F - 39.9 °F 61% 30.10 in 10.0 mi WSW 9.2 mph - N/A   Overcast
3:56 PM 53.1 °F - 37.9 °F 57% 30.10 in 10.0 mi WSW 10.4 mph - N/A   Overcast
4:56 PM 51.1 °F - 39.0 °F 63% 30.09 in 10.0 mi SW 11.5 mph - N/A   Partly Cloudy
5:56 PM 50.0 °F - 37.9 °F 63% 30.12 in 10.0 mi West 4.6 mph - N/A   Clear
6:56 PM 48.0 °F - 35.1 °F 61% 30.12 in 10.0 mi WSW 9.2 mph - N/A   Clear
7:56 PM 46.0 °F 42.5 °F 35.1 °F 66% 30.14 in 10.0 mi West 6.9 mph - N/A   Clear
8:56 PM 44.1 °F 39.5 °F 35.1 °F 71% 30.16 in 10.0 mi West 8.1 mph - N/A   Clear
9:56 PM 43.0 °F 41.3 °F 35.1 °F 74% 30.20 in 10.0 mi NW 3.5 mph - N/A   Clear
10:56 PM 41.0 °F - 34.0 °F 76% 30.22 in 10.0 mi Calm Calm - N/A   Clear
11:56 PM 37.9 °F - 33.1 °F 83% 30.24 in 10.0 mi Calm Calm - N/A   Clear